#timestamp,LO_Frequency,Hit,StdDev 
1545008415.8,286047003.7,N
1545008435.6,286047001.3,N
1545008455.5,286047004.3,N
1545008475.3,286047001.8,N
1545008495.2,286047001.4,N
1545008515.9,286047001.6,N
1545008535.7,286047002.6,N
1545008555.6,286047002.0,N
1545008575.4,286047002.8,N
1545008595.2,286047000.2,N
1545008615.1,286047000.1,N
1545008616.0,286047000.1,N
1545008635.8,286047000.6,N
1545008655.7,286047000.8,N
1545008675.5,286047000.3,N
1545008695.3,286047000.8,N
1545008715.2,286047000.8,N
1545008735.0,286046999.8,N
1545008735.9,286046999.8,N
1545008755.8,286046999.8,N
1545008775.6,286047001.2,N
1545008795.4,286047000.7,N
1545008815.3,286047002.8,N
1545008835.1,286046998.1,N
1545008855.9,286047000.4,N
1545008875.7,286047000.1,N
1545008895.5,286047000.3,N
1545008915.4,286047000.5,N
1545008935.2,286047002.8,N
1545008955.0,286046999.7,N
1545008955.9,286046999.7,N
1545008975.8,286047002.6,N
1545008995.6,286047000.4,N
1545009015.5,286046999.9,N
1545009035.3,286047000.5,N
1545009055.1,286047001.9,N
1545009075.9,286047002.8,N
1545009095.7,286047002.4,N
1545009115.5,286047004.3,Y
1545009135.4,286047002.1,P
1545009155.2,286047000.1,N
1545009175.1,286047002.6,P
1545009176.0,286047002.6,N
1545009195.8,286047001.5,N
1545009215.6,286047003.9,Y
1545009235.8,286047001.0,P
1545009255.7,286047000.6,N
1545009275.5,286046998.3,P
1545009295.4,286046997.1,N
1545009315.2,286046997.2,N
1545009335.0,286046998.6,N
1545009335.9,286046998.6,N
1545009355.8,286046998.2,N
1545009375.6,286046998.8,N
1545009395.4,286047000.7,N
1545009415.3,286047000.1,N
1545009435.1,286047000.0,N
1545009455.9,286047000.6,N
1545009475.7,286047001.1,N
1545009495.5,286046998.4,N
1545009515.4,286046999.4,N
1545009535.2,286046996.9,N
1545009555.0,286046999.2,N
1545009555.9,286046999.2,N
1545009575.8,286046998.8,N
1545009595.6,286046999.4,N
1545009615.5,286046999.3,N
1545009635.3,286046996.7,N
1545009655.1,286046999.6,N
1545009675.9,286046997.7,N
1545009695.7,286046998.4,N
1545009715.5,286046996.9,N
1545009735.4,286046997.1,N
1545009755.2,286046996.5,N
1545009775.1,286046998.5,N
1545009776.0,286046998.5,N
1545009795.8,286046998.1,N
1545009815.6,286047001.1,N
1545009835.5,286046999.0,N
1545009855.3,286046996.8,N
1545009875.1,286046998.8,N
1545009895.9,286046999.4,N
1545009915.7,286046998.4,N
1545009935.6,286047001.2,N
1545009955.4,286046998.1,N
1545009975.2,286046998.2,N
1545009995.0,286047000.9,N
1545009995.9,286047000.9,N
1545010015.8,286046998.5,N
1545010035.6,286046998.7,N
1545010055.4,286046998.3,N
1545010075.3,286046998.3,N
1545010095.1,286046998.2,N
1545010115.8,286047001.2,N
1545010135.7,286047000.8,N
1545010155.5,286047000.8,N
1545010175.4,286046998.6,N
1545010195.2,286046998.9,N
1545010215.0,286046998.8,N
1545010215.9,286046998.8,N
1545010235.8,286046998.3,N
1545010255.6,286046998.9,N
1545010275.5,286046998.8,N
1545010295.3,286046998.4,N
1545010315.1,286046998.5,N
1545010335.9,286046998.8,N
1545010355.7,286046998.6,N
1545010375.5,286046998.6,N
1545010395.4,286046998.5,N
1545010415.2,286047000.7,N
1545010435.1,286046998.5,N
1545010436.0,286046998.5,N
1545010455.8,286047000.9,N
1545010475.6,286047001.1,N
1545010495.5,286047000.8,N
1545010515.3,286046998.8,N
1545010535.1,286046999.3,N
1545010555.9,286046998.9,N
1545010575.7,286046999.5,N
1545010595.6,286046998.3,N
1545010615.4,286046999.6,N
1545010635.2,286046997.0,Y
1545010655.1,286046999.1,P
1545010656.0,286046999.1,P
1545010675.8,286046996.7,P
1545010695.7,286046998.9,N
1545010715.6,286046996.9,Y
1545010735.4,286046998.2,P
1545010755.2,286047000.6,N
1545010775.1,286047000.5,N
1545010776.0,286047000.5,N
1545010795.8,286046999.8,N
1545010815.6,286047000.0,N
1545010835.5,286047001.0,N
1545010855.3,286047002.8,N
1545010875.2,286047001.9,N
1545010895.9,286047002.8,N
1545010915.7,286046999.8,N
1545010935.6,286047000.2,N
1545010955.4,286046999.7,N
1545010975.2,286047000.2,N
1545010995.1,286047002.3,N
1545010996.0,286047002.3,N
1545011015.8,286047001.9,N
1545011035.7,286047001.6,N
1545011055.5,286047001.3,N
1545011075.3,286047001.7,N
1545011095.2,286047002.5,N
1545011115.9,286047001.8,N
1545011135.7,286047002.4,N
1545011155.6,286046999.9,N
1545011175.4,286046998.5,N
1545011195.3,286047000.8,N
1545011215.1,286047002.5,N
1545011216.0,286047002.5,N
1545011235.8,286047001.4,N
1545011255.7,286047001.5,N
1545011275.5,286047001.5,N
1545011295.3,286047001.9,N
1545011315.2,286047002.4,N
1545011335.0,286047002.2,N
1545011335.9,286047002.2,N
1545011355.8,286047002.2,N
1545011375.6,286047002.3,N
1545011395.4,286046999.8,N
1545011415.3,286047001.8,N
1545011435.1,286047002.5,N
1545011455.8,286047000.1,N
1545011475.7,286047002.5,N
1545011495.5,286047002.3,N
1545011515.4,286047002.5,N
1545011535.2,286047000.0,N
1545011555.0,286047001.2,N
1545011555.9,286047001.2,N
1545011575.8,286046999.7,N
1545011595.6,286047002.3,N
1545011615.5,286046999.8,N
1545011635.3,286047000.6,N
1545011655.1,286047002.8,N
1545011675.9,286047002.6,N
1545011695.7,286047002.8,N
1545011715.5,286047001.0,N
1545011735.4,286047002.7,N
1545011755.2,286047000.3,N
1545011775.0,286047000.4,N
1545011776.0,286047000.4,N
1545011795.8,286047002.4,N
1545011815.6,286047001.6,N
1545011835.5,286047001.5,N
1545011855.3,286047001.4,N
1545011875.1,286047001.9,N
1545011895.9,286047001.6,N
1545011915.7,286047002.4,N
1545011935.6,286047000.5,N
1545011955.4,286047000.3,N
1545011975.2,286047000.7,N
1545011995.1,286047000.0,N
1545011996.0,286047000.0,N
